Date String (YYYY-MM-DD hh:mm:ss) UTC,Instrument flags,absolute air pressure of the measurement (hPa),sample flow rate (lpm),inlet stack bypass flow (lpm),air temperature of the measurement (°C),ambient temperature measured by the external sensor (°C),aerosol sample conditioner tube jacket temperature (°C),OPC LED temperature (°C),internal box temperature (°C),relative humidity of the measurement (%),span deviation,mass concentration of particles derived from Lorenz-Mie calculation of OPC scattering (μg/m³),mass concentration of particles derived from Lorenz-Mie calculation of OPC scattering (μg/m³),mass concentration of particles derived from Lorenz-Mie calculation of OPC scattering (μg/m³)
DateTimeUTC,F1_M11,P_M11,Q1_M11,Q2_M11,T1_M11,T2_M11,T3_M11,T4_M11,T5_M11,U1_M11,ZSPAN_M11,X2_M11,X0_M11,X1_M11
2023-09-12 00:00:00,SystemResetWarning,0835.9,5.00,000.00,028.4,027.4,000.0,036.7,030.2,28.1,-000.6,0004.77,0008.84,0004.56
2023-09-12 00:01:00,SystemResetWarning,0835.9,4.99,000.00,028.5,027.2,000.0,036.7,030.2,27.9,-000.8,0004.74,0008.94,0004.52
2023-09-12 00:02:00,SystemResetWarning,0835.9,4.98,000.00,028.5,025.7,000.0,036.6,029.9,27.7,-000.8,0004.73,0009.04,0004.50
2023-09-12 00:03:00,SystemResetWarning,0835.8,5.01,000.00,028.4,024.8,000.0,036.5,029.7,28.0,-000.7,0004.71,0009.03,0004.48
2023-09-12 00:04:00,SystemResetWarning,0835.8,5.01,000.00,028.3,024.8,000.0,036.5,029.6,28.2,-000.4,0004.69,0009.04,0004.46
2023-09-12 00:05:00,SystemResetWarning,0835.9,4.99,000.00,028.2,025.1,000.0,036.5,029.6,28.0,-000.2,0004.69,0009.08,0004.46
2023-09-12 00:06:00,SystemResetWarning,0835.8,5.00,000.00,028.2,025.5,000.0,036.6,029.7,28.3,-000.1,0004.66,0008.98,0004.45
2023-09-12 00:07:00,SystemResetWarning,0835.9,5.00,000.00,028.2,025.9,000.0,036.6,029.7,28.3,0000.3,0004.64,0008.31,0004.43
2023-09-12 00:08:00,SystemResetWarning,0835.9,5.01,000.00,028.2,026.2,000.0,036.6,029.8,28.7,0000.4,0004.63,0008.29,0004.43
2023-09-12 00:09:00,SystemResetWarning,0835.9,4.99,000.00,028.2,026.5,000.0,036.6,029.9,29.3,0000.9,0004.65,0008.25,0004.44
2023-09-12 00:10:00,SystemResetWarning,0835.9,5.00,000.00,028.3,026.7,000.0,036.6,030.0,29.0,0000.9,0004.67,0007.93,0004.45
2023-09-12 00:11:00,SystemResetWarning,0835.9,5.00,000.00,028.3,026.9,000.0,036.6,030.0,29.2,0001.1,0004.71,0007.64,0004.47
2023-09-12 00:12:00,SystemResetWarning,0835.9,5.00,000.00,028.3,027.1,000.0,036.6,030.1,29.0,0001.3,0004.75,0007.50,0004.50
2023-09-12 00:13:00,SystemResetWarning,0835.9,5.01,000.00,028.4,027.2,000.0,036.6,030.1,28.8,0001.4,0004.77,0007.42,0004.52
2023-09-12 00:14:00,SystemResetWarning,0835.9,5.00,000.00,028.4,027.3,000.0,036.6,030.2,28.7,0001.3,0004.80,0007.47,0004.55
2023-09-12 00:15:00,SystemResetWarning,0835.9,5.00,000.00,028.5,027.4,000.0,036.7,030.2,28.7,0001.2,0004.83,0007.46,0004.57
2023-09-12 00:16:00,SystemResetWarning,0835.9,5.00,000.00,028.5,027.2,000.0,036.7,030.2,28.6,0001.3,0004.87,0007.52,0004.60
2023-09-12 00:17:00,SystemResetWarning,0835.8,4.98,000.00,028.5,025.7,000.0,036.6,029.9,28.8,0000.9,0004.93,0007.61,0004.65
2023-09-12 00:18:00,SystemResetWarning,0835.8,5.01,000.00,028.4,024.8,000.0,036.5,029.8,28.8,0000.4,0004.97,0007.65,0004.69
2023-09-12 00:19:00,SystemResetWarning,0835.8,5.01,000.00,028.3,024.9,000.0,036.5,029.6,28.8,0000.2,0005.01,0007.71,0004.72
2023-09-12 00:20:00,SystemResetWarning,0835.8,5.00,000.00,028.2,025.2,000.0,036.5,029.6,28.9,0000.0,0005.00,0007.67,0004.73
2023-09-12 00:21:00,SystemResetWarning,0835.8,5.00,000.00,028.2,025.5,000.0,036.6,029.6,28.8,-000.6,0005.01,0007.67,0004.76
2023-09-12 00:22:00,SystemResetWarning,0835.8,5.00,000.00,028.2,025.9,000.0,036.6,029.7,29.1,-001.0,0005.00,0007.63,0004.77
2023-09-12 00:23:00,SystemResetWarning,0835.8,5.00,000.00,028.2,026.2,000.0,036.6,029.8,29.1,-001.1,0005.00,0007.63,0004.79
2023-09-12 00:24:00,SystemResetWarning,0835.8,4.99,000.00,028.3,026.5,000.0,036.6,029.9,29.1,-001.0,0005.00,0008.14,0004.80
2023-09-12 00:25:00,SystemResetWarning,0835.8,5.00,000.00,028.3,026.7,000.0,036.6,029.9,29.0,-001.1,0004.99,0008.26,0004.81
2023-09-12 00:26:00,SystemResetWarning,0835.8,5.00,000.00,028.3,026.9,000.0,036.6,030.0,28.8,-001.2,0005.00,0008.27,0004.81
2023-09-12 00:27:00,SystemResetWarning,0835.8,5.00,000.00,028.4,027.1,000.0,036.6,030.1,28.9,-001.6,0004.99,0008.23,0004.82
2023-09-12 00:28:00,SystemResetWarning,0835.8,5.00,000.00,028.4,027.2,000.0,036.6,030.1,28.9,-001.8,0004.97,0008.21,0004.80
2023-09-12 00:29:00,SystemResetWarning,0835.8,5.00,000.00,028.4,027.3,000.0,036.7,030.2,29.1,-001.9,0004.96,0008.20,0004.78
2023-09-12 00:30:00,SystemResetWarning,0835.8,5.00,000.00,028.5,027.4,000.0,036.7,030.2,29.0,-001.9,0004.95,0008.17,0004.78
2023-09-12 00:31:00,SystemResetWarning,0835.8,4.99,000.00,028.5,027.1,000.0,036.7,030.2,29.0,-001.6,0004.95,0008.28,0004.78
2023-09-12 00:32:00,SystemResetWarning,0835.8,5.00,000.00,028.5,025.6,000.0,036.6,029.9,29.1,-001.2,0004.92,0008.27,0004.76
2023-09-12 00:33:00,SystemResetWarning,0835.7,5.01,000.00,028.4,024.8,000.0,036.5,029.8,29.4,-000.5,0004.92,0008.30,0004.75
2023-09-12 00:34:00,SystemResetWarning,0835.7,5.01,000.00,028.3,024.8,000.0,036.5,029.6,29.7,-000.4,0004.91,0008.29,0004.73
2023-09-12 00:35:00,SystemResetWarning,0835.7,5.00,000.00,028.2,025.1,000.0,036.6,029.6,30.2,-000.6,0004.87,0007.92,0004.71
2023-09-12 00:36:00,SystemResetWarning,0835.8,5.00,000.00,028.2,025.5,000.0,036.6,029.6,30.6,-000.5,0004.85,0007.66,0004.68
2023-09-12 00:37:00,SystemResetWarning,0835.8,5.00,000.00,028.2,025.9,000.0,036.6,029.7,30.6,-000.6,0004.82,0007.76,0004.65
2023-09-12 00:38:00,SystemResetWarning,0835.8,5.01,000.00,028.2,026.2,000.0,036.6,029.7,30.6,-000.8,0004.78,0007.71,0004.62
2023-09-12 00:39:00,SystemResetWarning,0835.8,5.01,000.00,028.2,026.4,000.0,036.6,029.8,30.6,-000.5,0004.75,0007.66,0004.60
2023-09-12 00:40:00,SystemResetWarning,0835.8,4.99,000.00,028.3,026.7,000.0,036.6,029.9,30.6,0000.2,0004.73,0007.63,0004.59
2023-09-12 00:41:00,SystemResetWarning,0835.8,4.99,000.00,028.3,026.9,000.0,036.6,029.9,30.5,0000.5,0004.73,0007.67,0004.56
2023-09-12 00:42:00,SystemResetWarning,0835.8,5.00,000.00,028.3,027.0,000.0,036.6,030.0,30.4,-000.2,0004.75,0007.72,0004.54
2023-09-12 00:43:00,SystemResetWarning,0835.8,5.00,000.00,028.4,027.2,000.0,036.6,030.1,30.3,-000.2,0004.73,0007.65,0004.53
2023-09-12 00:44:00,SystemResetWarning,0835.8,5.00,000.00,028.4,027.3,000.0,036.6,030.1,30.2,-001.1,0004.75,0007.68,0004.53
2023-09-12 00:45:00,SystemResetWarning,0835.8,5.01,000.00,028.4,027.4,000.0,036.7,030.2,30.2,-001.1,0004.80,0007.80,0004.54
2023-09-12 00:46:00,SystemResetWarning,0835.8,5.00,000.00,028.5,027.4,000.0,036.7,030.2,30.1,-001.1,0004.85,0007.98,0004.55
2023-09-12 00:47:00,SystemResetWarning,0835.8,4.98,000.00,028.5,026.3,000.0,036.7,030.0,30.0,-001.5,0004.86,0007.90,0004.56
2023-09-12 00:48:00,SystemResetWarning,0835.8,5.01,000.00,028.4,025.0,000.0,036.6,029.8,30.1,-001.3,0004.88,0007.74,0004.58
2023-09-12 00:49:00,SystemResetWarning,0835.8,5.01,000.00,028.3,024.7,000.0,036.5,029.6,30.2,-000.8,0004.94,0007.89,0004.60
2023-09-12 00:50:00,SystemResetWarning,0835.8,5.01,000.00,028.2,024.9,000.0,036.5,029.5,30.3,-000.7,0004.96,0008.15,0004.61
2023-09-12 00:51:00,SystemResetWarning,0835.8,4.99,000.00,028.2,025.3,000.0,036.6,029.5,30.4,-000.8,0004.97,0008.74,0004.61
2023-09-12 00:52:00,SystemResetWarning,0835.8,5.00,000.00,028.2,025.6,000.0,036.6,029.6,30.4,-001.0,0004.95,0008.68,0004.62
2023-09-12 00:53:00,SystemResetWarning,0835.8,5.00,000.00,028.2,026.0,000.0,036.6,029.6,30.5,-000.9,0004.94,0008.57,0004.63
2023-09-12 00:54:00,SystemResetWarning,0835.8,5.00,000.00,028.2,026.3,000.0,036.6,029.7,30.6,-000.9,0004.94,0008.56,0004.64
2023-09-12 00:55:00,SystemResetWarning,0835.8,5.00,000.00,028.2,026.5,000.0,036.6,029.8,30.6,-000.3,0004.93,0008.53,0004.63
2023-09-12 00:56:00,SystemResetWarning,0835.8,4.99,000.00,028.2,026.7,000.0,036.6,029.8,30.6,0000.0,0004.90,0008.46,0004.62
2023-09-12 00:57:00,SystemResetWarning,0835.8,5.00,000.00,028.3,026.9,000.0,036.6,029.9,30.5,0000.2,0004.85,0008.33,0004.60
2023-09-12 00:58:00,SystemResetWarning,0835.8,4.99,000.00,028.3,027.0,000.0,036.6,030.0,30.6,0000.3,0004.84,0008.39,0004.58
2023-09-12 00:59:00,SystemResetWarning,0835.8,5.00,000.00,028.3,027.2,000.0,036.6,030.0,30.6,0000.4,0004.83,0008.41,0004.56
